Time,TemperatureF,DewpointF,PressureIn,WindDirection,WindDirectionDegrees,WindSpeedMPH,WindSpeedGustMPH,Humidity,HourlyPrecipIn,Conditions,Clouds,dailyrainin,SoftwareType,DateUTC
2013-10-23 00:14:00,42.0,34.0,29.80,WSW,237,0.0,4.0,72,0.00,,,0.10,,2013-10-23 04:14:00,
2013-10-23 00:24:00,42.0,33.0,29.80,SW,221,3.0,7.0,71,0.00,,,0.10,,2013-10-23 04:24:00,
2013-10-23 00:45:00,42.0,33.0,29.79,SSW,207,0.0,6.0,71,0.00,,,0.10,,2013-10-23 04:45:00,
2013-10-23 00:55:00,42.0,33.0,29.79,SW,214,0.0,4.0,71,0.00,,,0.10,,2013-10-23 04:55:00,
2013-10-23 01:13:00,42.0,33.0,29.79,SW,229,1.0,7.0,71,0.00,,,0.10,,2013-10-23 05:13:00,
2013-10-23 01:23:00,42.0,33.0,29.79,SSW,212,2.0,9.0,70,0.00,,,0.10,,2013-10-23 05:23:00,
2013-10-23 01:53:00,42.0,33.0,29.78,SW,236,1.0,5.0,69,0.00,,,0.10,,2013-10-23 05:53:00,
2013-10-23 02:22:00,42.0,32.0,29.78,WSW,238,1.0,5.0,68,0.00,,,0.10,,2013-10-23 06:22:00,
2013-10-23 02:42:00,42.0,32.0,29.78,SW,230,1.0,4.0,68,0.00,,,0.10,,2013-10-23 06:42:00,
2013-10-23 02:52:00,42.0,32.0,29.77,SW,226,2.0,4.0,68,0.00,,,0.10,,2013-10-23 06:52:00,
2013-10-23 03:22:00,41.0,31.0,29.76,WSW,246,1.0,5.0,67,0.00,,,0.10,,2013-10-23 07:22:00,
2013-10-23 03:42:00,41.0,31.0,29.76,WSW,245,0.0,4.0,67,0.00,,,0.10,,2013-10-23 07:42:00,
2013-10-23 03:52:00,40.0,31.0,29.75,WSW,245,0.0,1.0,69,0.00,,,0.10,,2013-10-23 07:52:00,
2013-10-23 04:12:00,40.0,31.0,29.75,WSW,245,0.0,0.0,71,0.00,,,0.10,,2013-10-23 08:12:00,
2013-10-23 04:22:00,39.0,31.0,29.75,WSW,245,0.0,0.0,74,0.00,,,0.10,,2013-10-23 08:22:00,
2013-10-23 04:53:00,38.0,32.0,29.75,WSW,245,0.0,0.0,78,0.00,,,0.10,,2013-10-23 08:53:00,
2013-10-23 05:12:00,38.0,32.0,29.74,WSW,245,0.0,0.0,78,0.00,,,0.10,,2013-10-23 09:12:00,
2013-10-23 05:22:00,38.0,32.0,29.74,WSW,245,0.0,1.0,80,0.00,,,0.09,,2013-10-23 09:22:00,
2013-10-23 05:43:00,38.0,33.0,29.74,WSW,245,0.0,0.0,81,0.00,,,0.09,,2013-10-23 09:43:00,
2013-10-23 05:53:00,38.0,33.0,29.73,WSW,245,0.0,0.0,82,0.00,,,0.09,,2013-10-23 09:53:00,
2013-10-23 06:23:00,38.0,34.0,29.73,WSW,245,0.0,0.0,84,0.00,,,0.09,,2013-10-23 10:23:00,
2013-10-23 06:53:00,38.0,34.0,29.72,WSW,245,0.0,0.0,86,0.00,,,0.09,,2013-10-23 10:53:00,
2013-10-23 07:12:00,38.0,34.0,29.73,WSW,245,0.0,0.0,86,0.00,,,0.09,,2013-10-23 11:12:00,
2013-10-23 07:22:00,38.0,34.0,29.73,WSW,245,0.0,0.0,87,0.00,,,0.08,,2013-10-23 11:22:00,
2013-10-23 07:42:00,38.0,34.0,29.72,WSW,245,0.0,0.0,87,0.00,,,0.08,,2013-10-23 11:42:00,
2013-10-23 07:52:00,38.0,35.0,29.72,WSW,245,0.0,0.0,88,0.00,,,0.08,,2013-10-23 11:52:00,
2013-10-23 08:12:00,38.0,35.0,29.72,WSW,245,0.0,0.0,88,0.00,,,0.08,,2013-10-23 12:12:00,
2013-10-23 08:22:00,38.0,35.0,29.73,WSW,245,0.0,0.0,89,0.00,,,0.04,,2013-10-23 12:22:00,
2013-10-23 08:42:00,38.0,35.0,29.73,WSW,245,0.0,0.0,89,0.00,,,0.04,,2013-10-23 12:42:00,
2013-10-23 08:52:00,39.0,36.0,29.73,WSW,245,0.0,0.0,89,0.00,,,0.04,,2013-10-23 12:52:00,
2013-10-23 09:12:00,40.0,37.0,29.73,WSW,245,0.0,0.0,88,0.00,,,0.04,,2013-10-23 13:12:00,
2013-10-23 09:22:00,40.0,36.0,29.73,WSW,245,0.0,2.0,86,0.00,,,0.01,,2013-10-23 13:22:00,
2013-10-23 09:42:00,41.0,37.0,29.73,WSW,245,0.0,1.0,85,0.00,,,0.01,,2013-10-23 13:42:00,
2013-10-23 09:52:00,42.0,37.0,29.73,WSW,245,0.0,1.0,83,0.00,,,0.01,,2013-10-23 13:52:00,
2013-10-23 10:11:00,42.0,37.0,29.73,WSW,245,0.0,1.0,82,0.00,,,0.01,,2013-10-23 14:11:00,
2013-10-23 10:22:00,43.0,37.0,29.72,WSW,245,0.0,1.0,80,0.00,,,0.00,,2013-10-23 14:22:00,
2013-10-23 10:42:00,44.0,37.0,29.72,WSW,245,2.0,4.0,77,0.00,,,0.00,,2013-10-23 14:42:00,
2013-10-23 10:52:00,44.0,37.0,29.72,WSW,245,1.0,4.0,76,0.00,,,0.00,,2013-10-23 14:52:00,
2013-10-23 11:11:00,45.0,37.0,29.71,SW,221,1.0,5.0,74,0.00,,,0.00,,2013-10-23 15:11:00,
2013-10-23 11:22:00,46.0,37.0,29.71,WNW,293,1.0,5.0,71,0.00,,,0.00,,2013-10-23 15:22:00,
2013-10-23 11:43:00,46.0,37.0,29.71,WNW,293,0.0,4.0,70,0.00,,,0.00,,2013-10-23 15:43:00,
2013-10-23 11:53:00,47.0,37.0,29.70,West,264,1.0,5.0,69,0.00,,,0.00,,2013-10-23 15:53:00,
2013-10-23 12:23:00,48.0,38.0,29.69,SW,216,5.0,7.0,67,0.00,,,0.00,,2013-10-23 16:23:00,
2013-10-23 12:53:00,50.0,38.0,29.68,NW,311,2.0,6.0,64,0.00,,,0.00,,2013-10-23 16:53:00,
2013-10-23 13:12:00,49.0,38.0,29.68,WSW,239,1.0,8.0,66,0.00,,,0.00,,2013-10-23 17:12:00,
2013-10-23 13:23:00,49.0,38.0,29.67,WSW,248,2.0,4.0,65,0.00,,,0.00,,2013-10-23 17:23:00,
2013-10-23 13:44:00,49.0,37.0,29.67,SSW,213,5.0,7.0,64,0.00,,,0.00,,2013-10-23 17:44:00,
2013-10-23 13:52:00,49.0,37.0,29.65,SSW,209,3.0,9.0,62,0.00,,,0.00,,2013-10-23 17:52:00,
2013-10-23 14:12:00,49.0,37.0,29.65,West,261,1.0,7.0,63,0.00,,,0.00,,2013-10-23 18:12:00,
2013-10-23 14:22:00,49.0,37.0,29.64,WNW,302,2.0,5.0,63,0.00,,,0.00,,2013-10-23 18:22:00,
2013-10-23 14:42:00,48.0,38.0,29.64,NNW,337,2.0,5.0,69,0.00,,,0.00,,2013-10-23 18:42:00,
2013-10-23 14:52:00,48.0,39.0,29.64,NNE,30,0.0,5.0,71,0.00,,,0.00,,2013-10-23 18:52:00,
2013-10-23 15:12:00,48.0,39.0,29.63,NNE,30,4.0,9.0,70,0.00,,,0.00,,2013-10-23 19:12:00,
2013-10-23 15:22:00,48.0,39.0,29.64,North,355,1.0,5.0,70,0.00,,,0.00,,2013-10-23 19:22:00,
2013-10-23 15:42:00,48.0,39.0,29.64,North,355,0.0,3.0,72,0.00,,,0.00,,2013-10-23 19:42:00,
2013-10-23 15:53:00,47.0,38.0,29.64,NNW,328,1.0,4.0,72,0.00,,,0.00,,2013-10-23 19:53:00,
2013-10-23 16:11:00,46.0,38.0,29.65,NW,313,1.0,6.0,74,0.00,,,0.00,,2013-10-23 20:11:00,
2013-10-23 16:22:00,43.0,38.0,29.66,North,360,1.0,6.0,83,0.03,,,0.03,,2013-10-23 20:22:00,
2013-10-23 16:42:00,43.0,39.0,29.66,NNW,334,0.0,2.0,85,0.03,,,0.03,,2013-10-23 20:42:00,
2013-10-23 16:52:00,43.0,39.0,29.67,West,278,1.0,5.0,85,0.03,,,0.03,,2013-10-23 20:52:00,
2013-10-23 17:12:00,43.0,38.0,29.67,NW,311,2.0,5.0,84,0.03,,,0.03,,2013-10-23 21:12:00,
2013-10-23 17:22:00,43.0,38.0,29.67,NW,304,0.0,3.0,84,0.00,,,0.03,,2013-10-23 21:22:00,
2013-10-23 17:43:00,43.0,38.0,29.67,NW,304,0.0,3.0,84,0.00,,,0.03,,2013-10-23 21:43:00,
2013-10-23 17:54:00,42.0,38.0,29.68,NW,304,1.0,4.0,86,0.00,,,0.03,,2013-10-23 21:54:00,
2013-10-23 18:13:00,42.0,38.0,29.68,NW,317,0.0,9.0,87,0.01,,,0.04,,2013-10-23 22:13:00,
2013-10-23 18:24:00,41.0,38.0,29.69,WNW,302,0.0,3.0,89,0.01,,,0.04,,2013-10-23 22:24:00,
2013-10-23 18:43:00,41.0,38.0,29.69,WNW,302,0.0,4.0,89,0.01,,,0.04,,2013-10-23 22:43:00,
2013-10-23 18:54:00,41.0,38.0,29.70,WNW,302,0.0,3.0,90,0.01,,,0.04,,2013-10-23 22:54:00,
2013-10-23 19:12:00,40.0,37.0,29.70,WNW,302,0.0,5.0,90,0.00,,,0.04,,2013-10-23 23:12:00,
2013-10-23 19:23:00,40.0,38.0,29.71,NW,306,0.0,5.0,91,0.02,,,0.06,,2013-10-23 23:23:00,
2013-10-23 19:42:00,40.0,38.0,29.70,NW,306,0.0,3.0,91,0.03,,,0.07,,2013-10-23 23:42:00,
2013-10-23 19:53:00,39.0,37.0,29.71,NW,306,0.0,0.0,91,0.03,,,0.07,,2013-10-23 23:53:00,
2013-10-23 20:12:00,39.0,37.0,29.71,NW,306,1.0,2.0,92,0.03,,,0.07,,2013-10-24 00:12:00,
2013-10-23 20:22:00,39.0,37.0,29.71,West,272,0.0,6.0,92,0.01,,,0.07,,2013-10-24 00:22:00,
2013-10-23 20:52:00,39.0,37.0,29.72,West,272,0.0,2.0,92,0.00,,,0.07,,2013-10-24 00:52:00,
2013-10-23 21:11:00,39.0,37.0,29.72,West,271,0.0,4.0,92,0.01,,,0.08,,2013-10-24 01:11:00,
2013-10-23 21:22:00,38.0,36.0,29.72,West,271,1.0,2.0,92,0.01,,,0.08,,2013-10-24 01:22:00,
2013-10-23 21:42:00,38.0,36.0,29.72,West,271,0.0,3.0,93,0.01,,,0.08,,2013-10-24 01:42:00,
2013-10-23 21:52:00,38.0,36.0,29.72,West,271,0.0,2.0,93,0.01,,,0.08,,2013-10-24 01:52:00,
2013-10-23 22:12:00,37.0,35.0,29.73,West,271,0.0,3.0,93,0.00,,,0.08,,2013-10-24 02:12:00,
2013-10-23 22:22:00,37.0,35.0,29.73,West,271,0.0,2.0,93,0.00,,,0.08,,2013-10-24 02:22:00,
2013-10-23 23:12:00,37.0,35.0,29.74,West,271,1.0,3.0,94,0.00,,,0.08,,2013-10-24 03:12:00,
2013-10-23 23:22:00,36.0,34.0,29.74,West,271,1.0,5.0,94,0.00,,,0.08,,2013-10-24 03:22:00,
2013-10-23 23:55:00,36.0,34.0,29.75,West,271,0.0,2.0,94,0.00,,,0.08,,2013-10-24 03:55:00,